414  
AXUS43 KGID 260602  
MISGRI  
 
GID CWA HOURLY WEATHER ROUNDUP  
NATIONAL WEATHER SERVICE HASTINGS NE  
100 AM CDT TUE MAR 26 2019  
 
NOTE: "FAIR" INDICATES FEW OR NO CLOUDS BELOW 12,000 FEET WITH NO  
SIGNIFICANT WEATHER AND/OR OBSTRUCTIONS TO VISIBILITY.  
   
..SOUTH CENTRAL NEBRASKA
 
 
 
CITY SKY/WX TMP DP RH WIND PRES REMARKS  
GRAND ISLAND CLOUDY 40 38 93 E6 30.33S FOG  
KEARNEY CLOUDY 41 39 93 S9 30.30F  
HASTINGS CLOUDY 43 39 86 S7 30.32S  
ORD CLOUDY 39 38 96 SE6 30.29F WCI 35  
YORK CLOUDY 37 37 100 CALM 30.33S FOG  
AURORA CLOUDY 39 39 100 SE5 30.32S FOG  
LEXINGTON FAIR 40 38 93 SE5 30.29S  
HOLDREGE MOCLDY 40 40 100 SE5 30.30S  
HEBRON CLOUDY 40 38 93 CALM 30.34S FOG  
   
..NEBRASKA PANHANDLE
 
 
 
CITY SKY/WX TMP DP RH WIND PRES REMARKS  
CHADRON FOG 32 32 100 SW7 30.24S VSB 1/4 WCI 26  
ALLIANCE FAIR 30 30 100 S6 30.24F WCI 24  
SCOTTSBLUFF FAIR 34 34 100 E7 30.25F WCI 28  
SIDNEY FAIR 31 30 96 S7 30.28F WCI 24  
   
..WESTERN AND NORTH CENTRAL NEBRASKA
 
 
 
CITY SKY/WX TMP DP RH WIND PRES REMARKS  
VALENTINE FOG 38 35 89 E3 30.28F VSB 1/2  
AINSWORTH FOG 36 36 100 CALM 30.29F VSB 1/4  
ONEILL DRIZZLE 38 37 97 E5 30.32F WCI 34  
BROKEN BOW MOCLDY 39 38 96 CALM 30.27F  
IMPERIAL FAIR 37 32 82 NW3 30.29F  
NORTH PLATTE FAIR 39 37 92 SW3 30.27F  
MCCOOK FOG 34 34 100 SW7 30.30S VSB 1/4 WCI 28  
   
..EASTERN NEBRASKA
 
 
 
CITY SKY/WX TMP DP RH WIND PRES REMARKS  
NORFOLK CLOUDY N/A N/A N/A CALM 30.34S  
SO SIOUX CITY CLOUDY 38 31 76 CALM 30.36R  
TEKAMAH CLOUDY 37 36 96 S3 30.36S  
COLUMBUS CLOUDY 40 38 93 N3 30.35F  
ALBION CLOUDY 40 38 94 CALM 30.33F  
OMAHA EPPLEY PTCLDY 42 35 76 SE6 30.36R  
OFFUTT AFB MOCLDY 43 36 75 E5 30.35S  
MILLARD CLOUDY 41 37 88 CALM 30.35S  
LINCOLN PTCLDY 37 35 92 CALM 30.36S  
NEBRASKA CITY MOCLDY 41 37 84 E5 30.36R  
BEATRICE PTCLDY 41 38 91 E3 30.34S  
FALLS CITY PTCLDY 40 37 89 E3 30.35F  
   
..NORTHERN KANSAS
 
 
 
CITY SKY/WX TMP DP RH WIND PRES REMARKS  
GOODLAND FAIR 42 39 89 SW16 30.29S  
HILL CITY CLEAR 41 37 86 CALM 30.31S  
NORTON CLEAR 40 38 93 CALM 30.34S  
PHILLIPSBURG MOCLDY 39 39 100 CALM 30.32S  
OBERLIN N/A 36 36 100 CALM 30.34S FOG  
SMITH CENTER CLEAR 39 37 92 SE8 30.32S WCI 33  
HAYS CLEAR 40 37 89 S7 30.31F  
RUSSELL CLEAR 41 39 93 SE8 30.31S  
CONCORDIA PTCLDY 42 36 79 S7 30.32F  
SALINA CLEAR 43 37 79 SE3 30.34S  
TOPEKA CLEAR 40 36 86 CALM 30.35S  
 
CLICK HERE TO GO TO PREVIOUS BULLETINS.

The Nexlab NE Page
The Nexlab KS Page Main Text Page